Overview Statistics Trail Chart Weather Telemetry Raw packets
 

This is the latest recevied weather packets stored in our database for station/object W5ALL-WX. If no packets are shown the sender has not sent any weather packets the latest 10 day(s).

<< 4 5 6 7 8 9 10 >>
Time Temp. Humidity Pressure Rain* Wind** Luminosity Snow
1778011030 18.89° C 43% 1012.8 hPa 0 mm - - -
1778010730 19.44° C 43% 1012.7 hPa 0 mm - - -
1778010430 19.44° C 43% 1012.8 hPa 0 mm - - -
1778010130 19.44° C 43% 1012.8 hPa 0 mm - - -
1778009830 19.44° C 42% 1012.8 hPa 0 mm - - -
1778009530 19.44° C 42% 1012.7 hPa 0 mm - - -
1778009230 19.44° C 41% 1012.9 hPa 0 mm - - -
1778008930 19.44° C 40% 1012.7 hPa 0 mm - - -
1778008630 20° C 39% 1012.7 hPa 0 mm - - -
1778008330 19.44° C 40% 1012.6 hPa 0 mm - - -
1778008030 19.44° C 40% 1012.6 hPa 0 mm - - -
1778007730 19.44° C 39% 1012.6 hPa 0 mm - - -
1778007430 19.44° C 39% 1012.5 hPa 0 mm - - -
1778007130 19.44° C 38% 1012.2 hPa 0 mm - - -
1778006830 19.44° C 38% 1012.2 hPa 0 mm - - -
1778006530 19.44° C 38% 1012.6 hPa 0 mm - - -
1778006230 19.44° C 38% 1012.6 hPa 0 mm - - -
1778005930 20° C 35% 1012.7 hPa 0 mm - - -
1778005630 21.11° C 32% 1012.5 hPa 0 mm - - -
1778005330 21.11° C 32% 1012.4 hPa 0 mm - - -
1778005030 21.11° C 33% 1012.1 hPa 0 mm - - -
1778004730 20.56° C 33% 1012.2 hPa 0 mm - - -
1778004430 20° C 34% 1012.4 hPa 0 mm - - -
1778004130 20° C 33% 1012.5 hPa 0 mm - - -
1778003830 20° C 33% 1012.6 hPa 0 mm - - -

* Rain latest hour (hover to see other rain measurements)
** Current wind speed in m/s (hover to see current wind gust speed)